This is the latest recevied weather packets stored in our database for station/object K8GLX. If no packets are shown the sender has not sent any weather packets the latest 1 day(s).
| Time | Temp. | Humidity | Pressure | Rain* | Wind** | Luminosity | Snow |
|---|---|---|---|---|---|---|---|
| 1777990934 | 18.89° C | 61% | 1005.6 hPa | 0 mm | 2.68 m/s, 241° | 280 W/m² | - |
| 1777990628 | 18.89° C | 60% | 1005.6 hPa | 0 mm | 2.68 m/s, 222° | 483 W/m² | - |
| 1777990334 | 18.89° C | 61% | 1005.4 hPa | 0 mm | 4.92 m/s, 265° | 478 W/m² | - |
| 1777990028 | 18.89° C | 62% | 1005.4 hPa | 0 mm | 3.58 m/s, 213° | 498 W/m² | - |
| 1777989734 | 18.89° C | 62% | 1005.4 hPa | 0 mm | 4.02 m/s, 249° | 553 W/m² | - |
| 1777989428 | 18.33° C | 64% | 1005.4 hPa | 0 mm | 3.13 m/s, 214° | 519 W/m² | - |
| 1777989261 | 18.89° C | 63% | 1005.3 hPa | 0 mm | 7.6 m/s, 258° | 502 W/m² | - |
| 1777988828 | 18.33° C | 64% | 1005.3 hPa | 0 mm | 2.24 m/s, 241° | 479 W/m² | - |
| 1777988534 | 18.33° C | 64% | 1005.3 hPa | 0 mm | 1.34 m/s, 184° | 458 W/m² | - |
| 1777988229 | 18.33° C | 65% | 1005.4 hPa | 0 mm | 2.68 m/s, 238° | 443 W/m² | - |
| 1777987935 | 17.78° C | 66% | 1005.2 hPa | 0 mm | 3.13 m/s, 242° | 339 W/m² | - |
| 1777987629 | 17.78° C | 66% | 1005.4 hPa | 0 mm | 4.02 m/s, 225° | 352 W/m² | - |
| 1777987334 | 17.78° C | 66% | 1005.2 hPa | 0 mm | 2.68 m/s, 253° | 212 W/m² | - |
| 1777987028 | 17.78° C | 67% | 1005.2 hPa | 0 mm | 1.79 m/s, 276° | 222 W/m² | - |
| 1777986734 | 17.78° C | 67% | 1005.5 hPa | 0 mm | 3.13 m/s, 177° | 129 W/m² | - |
| 1777986429 | 17.78° C | 66% | 1005.6 hPa | 0 mm | 7.15 m/s, 254° | 120 W/m² | - |
| 1777986135 | 17.78° C | 66% | 1005.4 hPa | 0 mm | 4.02 m/s, 236° | 113 W/m² | - |
| 1777985828 | 17.78° C | 66% | 1005.1 hPa | 0 mm | 4.47 m/s, 210° | 101 W/m² | - |
| 1777985534 | 17.78° C | 65% | 1005.4 hPa | 0 mm | 1.34 m/s, 260° | 87 W/m² | - |
| 1777985343 | 17.78° C | 65% | 1005.5 hPa | 0 mm | 5.81 m/s, 248° | 73 W/m² | - |
| 1777985061 | 17.78° C | 65% | 1004.8 hPa | 0 mm | 2.68 m/s, 239° | 65 W/m² | - |
| 1777984629 | 17.78° C | 64% | 1005.1 hPa | 0 mm | 4.92 m/s, 241° | 59 W/m² | - |
| 1777984334 | 17.78° C | 64% | 1005.3 hPa | 0 mm | 2.68 m/s, 234° | 61 W/m² | - |
| 1777984029 | 17.78° C | 64% | 1005.1 hPa | 0 mm | 4.02 m/s, 233° | 59 W/m² | - |
| 1777983861 | 17.78° C | 64% | 1004.6 hPa | 0 mm | 0.89 m/s, 158° | 61 W/m² | - |
* Rain latest hour (hover to see other rain measurements)
** Current wind speed in m/s (hover to see current wind gust speed)